Time,TemperatureF,DewpointF,PressureIn,WindDirection,WindDirectionDegrees,WindSpeedMPH,WindSpeedGustMPH,Humidity,HourlyPrecipIn,Conditions,Clouds,dailyrainin,SoftwareType,DateUTC
2013-01-14 00:02:00,20.0,20.0,30.50,SSE,157,2.0,2.0,106,-99.99,,,-99.99,,2013-01-14 08:02:00,
2013-01-14 00:12:00,19.0,19.0,30.49,South,182,2.0,2.0,106,-99.99,,,-99.99,,2013-01-14 08:12:00,
2013-01-14 00:22:00,19.0,19.0,30.49,SSW,197,2.0,2.0,106,-99.99,,,-99.99,,2013-01-14 08:22:00,
2013-01-14 00:32:00,19.0,19.0,30.49,SSW,192,2.0,2.0,106,-99.99,,,-99.99,,2013-01-14 08:32:00,
2013-01-14 00:42:00,19.0,19.0,30.48,ESE,114,3.0,3.0,106,-99.99,,,-99.99,,2013-01-14 08:42:00,
2013-01-14 00:52:00,19.0,19.0,30.49,SE,128,1.0,3.0,106,-99.99,,,-99.99,,2013-01-14 08:52:00,
2013-01-14 01:02:00,19.0,19.0,30.49,SE,133,1.0,1.0,100,-99.99,,,-99.99,,2013-01-14 09:02:00,
2013-01-14 01:12:00,19.0,19.0,30.49,South,171,2.0,2.0,100,-99.99,,,-99.99,,2013-01-14 09:12:00,
2013-01-14 01:22:00,18.0,18.0,30.50,SSE,158,1.0,2.0,106,-99.99,,,-99.99,,2013-01-14 09:22:00,
2013-01-14 01:33:00,18.0,18.0,30.49,WSW,256,0.0,1.0,100,-99.99,,,-99.99,,2013-01-14 09:33:00,
2013-01-14 01:42:00,18.0,18.0,30.49,WSW,256,0.0,1.0,100,-99.99,,,-99.99,,2013-01-14 09:42:00,
2013-01-14 01:52:00,18.0,18.0,30.49,WSW,256,0.0,1.0,100,-99.99,,,-99.99,,2013-01-14 09:52:00,
2013-01-14 02:02:00,18.0,18.0,30.48,WSW,257,1.0,1.0,106,-99.99,,,-99.99,,2013-01-14 10:02:00,
2013-01-14 02:12:00,18.0,18.0,30.48,SE,139,1.0,1.0,100,-99.99,,,-99.99,,2013-01-14 10:12:00,
2013-01-14 02:22:00,18.0,18.0,30.47,ESE,121,1.0,2.0,100,-99.99,,,-99.99,,2013-01-14 10:22:00,
2013-01-14 02:32:00,18.0,18.0,30.48,ESE,106,2.0,2.0,100,-99.99,,,-99.99,,2013-01-14 10:32:00,
2013-01-14 02:42:00,17.0,17.0,30.48,SE,130,1.0,1.0,100,-99.99,,,-99.99,,2013-01-14 10:42:00,
2013-01-14 02:52:00,17.0,17.0,30.48,South,179,1.0,1.0,100,-99.99,,,-99.99,,2013-01-14 10:52:00,
2013-01-14 03:02:00,18.0,18.0,30.49,WSW,251,2.0,2.0,100,-99.99,,,-99.99,,2013-01-14 11:02:00,
2013-01-14 03:12:00,18.0,18.0,30.49,WSW,246,2.0,2.0,106,-99.99,,,-99.99,,2013-01-14 11:12:00,
2013-01-14 03:22:00,18.0,18.0,30.49,SW,221,1.0,2.0,106,-99.99,,,-99.99,,2013-01-14 11:22:00,
2013-01-14 03:32:00,19.0,19.0,30.49,South,171,1.0,2.0,106,-99.99,,,-99.99,,2013-01-14 11:32:00,
2013-01-14 03:42:00,20.0,20.0,30.48,SSE,166,2.0,4.0,106,-99.99,,,-99.99,,2013-01-14 11:42:00,
2013-01-14 03:53:00,20.0,20.0,30.47,SSE,155,1.0,2.0,100,-99.99,,,-99.99,,2013-01-14 11:53:00,
2013-01-14 04:02:00,20.0,20.0,30.47,SSE,155,1.0,2.0,100,-99.99,,,-99.99,,2013-01-14 12:02:00,
2013-01-14 04:12:00,20.0,20.0,30.48,SE,132,1.0,2.0,100,-99.99,,,-99.99,,2013-01-14 12:12:00,
2013-01-14 04:22:00,21.0,21.0,30.47,SE,140,1.0,2.0,100,-99.99,,,-99.99,,2013-01-14 12:22:00,
2013-01-14 04:33:00,21.0,21.0,30.47,South,182,1.0,1.0,100,-99.99,,,-99.99,,2013-01-14 12:33:00,
2013-01-14 04:42:00,21.0,21.0,30.47,South,175,1.0,1.0,100,-99.99,,,-99.99,,2013-01-14 12:42:00,
2013-01-14 04:52:00,21.0,21.0,30.47,South,183,1.0,1.0,100,-99.99,,,-99.99,,2013-01-14 12:52:00,
2013-01-14 05:03:00,21.0,21.0,30.47,West,276,1.0,2.0,100,-99.99,,,-99.99,,2013-01-14 13:03:00,
2013-01-14 05:12:00,22.0,22.0,30.48,NNW,331,1.0,1.0,100,-99.99,,,-99.99,,2013-01-14 13:12:00,
2013-01-14 05:22:00,22.0,22.0,30.48,North,357,1.0,2.0,100,-99.99,,,-99.99,,2013-01-14 13:22:00,
2013-01-14 05:33:00,22.0,22.0,30.47,SW,220,1.0,1.0,100,-99.99,,,-99.99,,2013-01-14 13:33:00,
2013-01-14 05:43:00,22.0,22.0,30.47,SW,220,1.0,1.0,100,-99.99,,,-99.99,,2013-01-14 13:43:00,
2013-01-14 05:52:00,22.0,22.0,30.47,SSE,161,2.0,4.0,100,-99.99,,,-99.99,,2013-01-14 13:52:00,
2013-01-14 06:02:00,22.0,22.0,30.47,SSE,168,1.0,2.0,100,-99.99,,,-99.99,,2013-01-14 14:02:00,
2013-01-14 06:12:00,22.0,22.0,30.46,South,182,2.0,3.0,100,-99.99,,,-99.99,,2013-01-14 14:12:00,
2013-01-14 06:22:00,22.0,22.0,30.46,South,175,2.0,4.0,100,-99.99,,,-99.99,,2013-01-14 14:22:00,
2013-01-14 06:33:00,22.0,22.0,30.46,South,180,2.0,4.0,100,-99.99,,,-99.99,,2013-01-14 14:33:00,
2013-01-14 06:43:00,22.0,22.0,30.46,South,180,2.0,4.0,100,-99.99,,,-99.99,,2013-01-14 14:43:00,
2013-01-14 06:52:00,22.0,22.0,30.46,South,174,2.0,4.0,100,-99.99,,,-99.99,,2013-01-14 14:52:00,
2013-01-14 07:03:00,22.0,22.0,30.46,South,174,2.0,4.0,100,-99.99,,,-99.99,,2013-01-14 15:03:00,
2013-01-14 07:12:00,22.0,22.0,30.46,SSE,161,3.0,6.0,99,-99.99,,,-99.99,,2013-01-14 15:12:00,
2013-01-14 07:23:00,22.0,22.0,30.45,SSE,165,4.0,9.0,98,-99.99,,,-99.99,,2013-01-14 15:23:00,
2013-01-14 07:33:00,22.0,21.0,30.46,WSW,243,3.0,9.0,98,-99.99,,,-99.99,,2013-01-14 15:33:00,
2013-01-14 07:43:00,22.0,22.0,30.46,SW,225,3.0,9.0,99,-99.99,,,-99.99,,2013-01-14 15:43:00,
2013-01-14 07:53:00,22.0,22.0,30.46,SSW,206,2.0,4.0,99,-99.99,,,-99.99,,2013-01-14 15:53:00,
2013-01-14 08:02:00,22.0,22.0,30.45,ESE,106,2.0,3.0,100,-99.99,,,-99.99,,2013-01-14 16:02:00,
2013-01-14 08:12:00,22.0,22.0,30.45,SE,127,2.0,4.0,100,-99.99,,,-99.99,,2013-01-14 16:12:00,
2013-01-14 08:23:00,21.0,21.0,30.45,WSW,240,3.0,6.0,100,-99.99,,,-99.99,,2013-01-14 16:23:00,
2013-01-14 08:33:00,21.0,21.0,30.45,SW,228,2.0,7.0,100,-99.99,,,-99.99,,2013-01-14 16:33:00,
2013-01-14 08:43:00,22.0,22.0,30.45,South,186,3.0,8.0,100,-99.99,,,-99.99,,2013-01-14 16:43:00,
2013-01-14 08:53:00,22.0,22.0,30.45,SE,143,2.0,4.0,98,-99.99,,,-99.99,,2013-01-14 16:53:00,
2013-01-14 09:03:00,22.0,22.0,30.45,SE,143,2.0,4.0,98,-99.99,,,-99.99,,2013-01-14 17:03:00,
2013-01-14 09:12:00,24.0,24.0,30.45,WSW,246,4.0,12.0,98,-99.99,,,-99.99,,2013-01-14 17:12:00,
2013-01-14 09:22:00,24.0,22.0,30.46,SW,221,2.0,6.0,94,-99.99,,,-99.99,,2013-01-14 17:22:00,
2013-01-14 09:33:00,26.0,24.0,30.46,WSW,248,8.0,19.0,92,-99.99,,,-99.99,,2013-01-14 17:33:00,
2013-01-14 09:42:00,28.0,23.0,30.45,SW,219,2.0,8.0,80,-99.99,,,-99.99,,2013-01-14 17:42:00,
2013-01-14 09:53:00,26.0,23.0,30.45,SSW,200,3.0,9.0,87,-99.99,,,-99.99,,2013-01-14 17:53:00,
2013-01-14 10:02:00,26.0,24.0,30.45,WSW,249,5.0,10.0,90,-99.99,,,-99.99,,2013-01-14 18:02:00,
2013-01-14 10:12:00,29.0,25.0,30.45,West,259,9.0,24.0,85,-99.99,,,-99.99,,2013-01-14 18:12:00,
2013-01-14 10:22:00,31.0,26.0,30.43,West,266,15.0,25.0,83,-99.99,,,-99.99,,2013-01-14 18:22:00,
2013-01-14 10:33:00,31.0,25.0,30.44,West,274,15.0,25.0,79,-99.99,,,-99.99,,2013-01-14 18:33:00,
2013-01-14 10:42:00,31.0,25.0,30.44,WSW,258,10.0,19.0,78,-99.99,,,-99.99,,2013-01-14 18:42:00,
2013-01-14 10:52:00,31.0,25.0,30.43,SSW,194,3.0,7.0,76,-99.99,,,-99.99,,2013-01-14 18:52:00,
2013-01-14 11:03:00,32.0,25.0,30.43,WSW,244,4.0,10.0,77,-99.99,,,-99.99,,2013-01-14 19:03:00,
2013-01-14 11:12:00,32.0,25.0,30.43,WSW,249,4.0,11.0,76,-99.99,,,-99.99,,2013-01-14 19:12:00,
2013-01-14 11:22:00,33.0,26.0,30.42,West,270,10.0,18.0,73,-99.99,,,-99.99,,2013-01-14 19:22:00,
2013-01-14 11:33:00,34.0,26.0,30.42,West,265,10.0,17.0,72,-99.99,,,-99.99,,2013-01-14 19:33:00,
2013-01-14 11:42:00,34.0,27.0,30.41,WNW,287,16.0,27.0,73,-99.99,,,-99.99,,2013-01-14 19:42:00,
2013-01-14 11:52:00,35.0,27.0,30.42,West,267,14.0,25.0,73,-99.99,,,-99.99,,2013-01-14 19:52:00,
2013-01-14 12:03:00,35.0,27.0,30.41,WSW,251,15.0,25.0,72,-99.99,,,-99.99,,2013-01-14 20:03:00,
2013-01-14 12:12:00,35.0,27.0,30.41,West,260,14.0,26.0,71,-99.99,,,-99.99,,2013-01-14 20:12:00,
2013-01-14 12:22:00,36.0,28.0,30.40,West,281,14.0,24.0,70,-99.99,,,-99.99,,2013-01-14 20:22:00,
2013-01-14 12:33:00,36.0,27.0,30.40,West,265,14.0,23.0,69,-99.99,,,-99.99,,2013-01-14 20:33:00,
2013-01-14 12:42:00,36.0,27.0,30.40,West,274,11.0,24.0,69,-99.99,,,-99.99,,2013-01-14 20:42:00,
2013-01-14 12:53:00,37.0,28.0,30.40,WSW,257,13.0,26.0,69,-99.99,,,-99.99,,2013-01-14 20:53:00,
2013-01-14 13:02:00,37.0,28.0,30.39,WSW,255,15.0,25.0,69,-99.99,,,-99.99,,2013-01-14 21:02:00,
2013-01-14 13:12:00,37.0,28.0,30.39,West,262,17.0,32.0,68,-99.99,,,-99.99,,2013-01-14 21:12:00,
2013-01-14 13:22:00,38.0,29.0,30.38,West,266,13.0,25.0,68,-99.99,,,-99.99,,2013-01-14 21:22:00,
2013-01-14 13:33:00,39.0,27.0,30.39,West,264,10.0,18.0,62,-99.99,,,-99.99,,2013-01-14 21:33:00,
2013-01-14 13:42:00,39.0,29.0,30.39,West,270,13.0,20.0,66,-99.99,,,-99.99,,2013-01-14 21:42:00,
2013-01-14 13:53:00,39.0,30.0,30.39,West,273,12.0,24.0,69,-99.99,,,-99.99,,2013-01-14 21:53:00,
2013-01-14 14:02:00,38.0,29.0,30.40,West,262,10.0,18.0,68,-99.99,,,-99.99,,2013-01-14 22:02:00,
2013-01-14 14:12:00,38.0,30.0,30.40,West,269,10.0,20.0,70,-99.99,,,-99.99,,2013-01-14 22:12:00,
2013-01-14 14:23:00,38.0,29.0,30.40,WSW,258,10.0,20.0,69,-99.99,,,-99.99,,2013-01-14 22:23:00,
2013-01-14 14:32:00,38.0,29.0,30.41,WSW,256,8.0,16.0,68,-99.99,,,-99.99,,2013-01-14 22:32:00,
2013-01-14 14:42:00,38.0,29.0,30.42,West,261,12.0,21.0,68,-99.99,,,-99.99,,2013-01-14 22:42:00,
2013-01-14 14:52:00,38.0,29.0,30.42,West,267,7.0,13.0,68,-99.99,,,-99.99,,2013-01-14 22:52:00,
2013-01-14 15:02:00,38.0,29.0,30.42,West,267,7.0,13.0,68,-99.99,,,-99.99,,2013-01-14 23:02:00,
2013-01-14 15:12:00,38.0,29.0,30.43,West,274,9.0,15.0,67,-99.99,,,-99.99,,2013-01-14 23:12:00,
2013-01-14 15:22:00,38.0,29.0,30.42,West,272,13.0,21.0,69,-99.99,,,-99.99,,2013-01-14 23:22:00,
2013-01-14 15:33:00,38.0,29.0,30.43,West,260,8.0,15.0,71,-99.99,,,-99.99,,2013-01-14 23:33:00,
2013-01-14 15:42:00,37.0,29.0,30.42,West,260,9.0,14.0,72,-99.99,,,-99.99,,2013-01-14 23:42:00,
2013-01-14 15:52:00,36.0,29.0,30.42,West,264,13.0,23.0,74,-99.99,,,-99.99,,2013-01-14 23:52:00,
2013-01-14 16:00:00,36.0,30.0,30.44,West,263,14.0,24.0,79,-99.99,,,-99.99,,2013-01-15 00:00:00,
2013-01-14 16:02:00,36.0,29.0,30.43,West,270,12.0,22.0,76,-99.99,,,-99.99,,2013-01-15 00:02:00,
2013-01-14 16:12:00,36.0,30.0,30.43,West,267,12.0,24.0,77,-99.99,,,-99.99,,2013-01-15 00:12:00,
2013-01-14 16:22:00,36.0,30.0,30.43,WSW,255,11.0,19.0,78,-99.99,,,-99.99,,2013-01-15 00:22:00,
2013-01-14 16:32:00,36.0,30.0,30.43,West,265,12.0,23.0,78,-99.99,,,-99.99,,2013-01-15 00:32:00,
2013-01-14 16:43:00,36.0,30.0,30.44,West,263,14.0,24.0,79,-99.99,,,-99.99,,2013-01-15 00:43:00,
2013-01-14 16:52:00,36.0,30.0,30.44,West,263,14.0,24.0,79,-99.99,,,-99.99,,2013-01-15 00:52:00,
2013-01-14 17:12:00,36.0,30.0,30.45,WNW,285,13.0,21.0,79,-99.99,,,-99.99,,2013-01-15 01:12:00,
2013-01-14 17:22:00,36.0,30.0,30.45,WNW,287,12.0,17.0,80,-99.99,,,-99.99,,2013-01-15 01:22:00,
2013-01-14 17:32:00,35.0,30.0,30.46,West,275,12.0,20.0,81,-99.99,,,-99.99,,2013-01-15 01:32:00,
2013-01-14 17:42:00,35.0,30.0,30.46,West,275,12.0,20.0,81,-99.99,,,-99.99,,2013-01-15 01:42:00,
2013-01-14 17:52:00,35.0,30.0,30.45,WNW,286,11.0,17.0,82,-99.99,,,-99.99,,2013-01-15 01:52:00,
2013-01-14 18:02:00,36.0,31.0,30.44,WNW,283,12.0,18.0,83,-99.99,,,-99.99,,2013-01-15 02:02:00,
2013-01-14 18:12:00,36.0,31.0,30.44,WNW,288,13.0,22.0,83,-99.99,,,-99.99,,2013-01-15 02:12:00,
2013-01-14 18:22:00,36.0,32.0,30.44,WNW,294,13.0,24.0,84,-99.99,,,-99.99,,2013-01-15 02:22:00,
2013-01-14 18:32:00,36.0,31.0,30.44,WNW,293,13.0,19.0,83,-99.99,,,-99.99,,2013-01-15 02:32:00,
2013-01-14 18:42:00,36.0,31.0,30.45,West,278,13.0,20.0,81,-99.99,,,-99.99,,2013-01-15 02:42:00,
2013-01-14 18:52:00,36.0,31.0,30.45,West,278,13.0,25.0,82,-99.99,,,-99.99,,2013-01-15 02:52:00,
2013-01-14 19:02:00,36.0,31.0,30.45,West,278,13.0,25.0,82,-99.99,,,-99.99,,2013-01-15 03:02:00,
2013-01-14 19:12:00,36.0,32.0,30.47,WNW,283,16.0,24.0,83,-99.99,,,-99.99,,2013-01-15 03:12:00,
2013-01-14 19:22:00,36.0,32.0,30.47,WNW,286,16.0,31.0,84,-99.99,,,-99.99,,2013-01-15 03:22:00,
2013-01-14 19:32:00,36.0,32.0,30.48,WNW,282,14.0,22.0,85,-99.99,,,-99.99,,2013-01-15 03:32:00,
2013-01-14 19:42:00,36.0,33.0,30.48,West,280,16.0,27.0,87,-99.99,,,-99.99,,2013-01-15 03:42:00,
2013-01-14 19:52:00,36.0,33.0,30.48,West,278,16.0,25.0,88,-99.99,,,-99.99,,2013-01-15 03:52:00,
2013-01-14 20:02:00,36.0,33.0,30.48,West,278,16.0,25.0,88,-99.99,,,-99.99,,2013-01-15 04:02:00,
2013-01-14 20:12:00,36.0,32.0,30.48,West,273,17.0,27.0,85,-99.99,,,-99.99,,2013-01-15 04:12:00,
2013-01-14 20:22:00,36.0,32.0,30.47,WNW,289,15.0,26.0,85,-99.99,,,-99.99,,2013-01-15 04:22:00,
2013-01-14 20:32:00,36.0,33.0,30.47,WNW,292,15.0,23.0,86,-99.99,,,-99.99,,2013-01-15 04:32:00,
2013-01-14 20:42:00,36.0,33.0,30.47,WNW,292,15.0,23.0,86,-99.99,,,-99.99,,2013-01-15 04:42:00,
2013-01-14 20:52:00,36.0,33.0,30.47,WNW,291,16.0,25.0,85,-99.99,,,-99.99,,2013-01-15 04:52:00,
2013-01-14 21:03:00,36.0,32.0,30.47,WNW,294,17.0,29.0,85,-99.99,,,-99.99,,2013-01-15 05:03:00,
2013-01-14 21:12:00,36.0,33.0,30.48,WNW,292,16.0,28.0,85,-99.99,,,-99.99,,2013-01-15 05:12:00,
2013-01-14 21:22:00,37.0,33.0,30.48,WNW,294,16.0,23.0,85,-99.99,,,-99.99,,2013-01-15 05:22:00,
2013-01-14 21:33:00,36.0,32.0,30.48,West,281,13.0,22.0,85,-99.99,,,-99.99,,2013-01-15 05:33:00,
2013-01-14 21:42:00,36.0,32.0,30.48,WNW,284,11.0,20.0,85,-99.99,,,-99.99,,2013-01-15 05:42:00,
2013-01-14 21:52:00,37.0,32.0,30.48,WNW,288,14.0,23.0,84,-99.99,,,-99.99,,2013-01-15 05:52:00,
2013-01-14 22:02:00,36.0,32.0,30.48,WNW,285,13.0,22.0,85,-99.99,,,-99.99,,2013-01-15 06:02:00,
2013-01-14 22:12:00,37.0,33.0,30.47,WNW,288,13.0,22.0,85,-99.99,,,-99.99,,2013-01-15 06:12:00,
2013-01-14 22:22:00,37.0,33.0,30.47,WNW,284,12.0,25.0,86,-99.99,,,-99.99,,2013-01-15 06:22:00,
2013-01-14 22:32:00,37.0,33.0,30.47,WNW,285,14.0,28.0,86,-99.99,,,-99.99,,2013-01-15 06:32:00,
2013-01-14 22:42:00,37.0,33.0,30.47,West,279,13.0,25.0,85,-99.99,,,-99.99,,2013-01-15 06:42:00,
2013-01-14 22:52:00,36.0,33.0,30.47,WNW,285,14.0,21.0,86,-99.99,,,-99.99,,2013-01-15 06:52:00,
2013-01-14 23:02:00,36.0,33.0,30.47,WNW,291,13.0,19.0,87,-99.99,,,-99.99,,2013-01-15 07:02:00,
2013-01-14 23:12:00,36.0,33.0,30.47,WNW,289,13.0,20.0,87,-99.99,,,-99.99,,2013-01-15 07:12:00,
2013-01-14 23:22:00,36.0,33.0,30.48,WNW,282,10.0,16.0,87,-99.99,,,-99.99,,2013-01-15 07:22:00,
2013-01-14 23:32:00,36.0,33.0,30.48,West,270,10.0,20.0,89,-99.99,,,-99.99,,2013-01-15 07:32:00,
2013-01-14 23:42:00,36.0,34.0,30.48,West,269,8.0,19.0,90,-99.99,,,-99.99,,2013-01-15 07:42:00,
2013-01-14 23:52:00,37.0,34.0,30.49,West,270,9.0,16.0,91,-99.99,,,-99.99,,2013-01-15 07:52:00,